TimeEST,TemperatureF,Dew PointF,Humidity,Sea Level PressureIn,VisibilityMPH,Wind Direction,Wind SpeedMPH,Gust SpeedMPH,PrecipitationIn,Events,Conditions,WindDirDegrees,DateUTC
12:05 AM,17.6,8.6,68,30.20,10.0,NW,15.0,-,N/A,Snow,Light Snow,310,2013-01-24 05:05:00
12:14 AM,17.6,8.6,68,30.21,10.0,NW,16.1,23.0,N/A,,Clear,320,2013-01-24 05:14:00
12:55 AM,16.9,11.1,78,30.23,10.0,NW,15.0,-,0.00,,Scattered Clouds,310,2013-01-24 05:55:00
12:58 AM,17.6,10.4,73,30.23,10.0,NW,16.1,-,N/A,Snow,Light Snow,310,2013-01-24 05:58:00
1:02 AM,17.6,12.2,79,30.23,10.0,NW,17.3,-,N/A,Snow,Light Snow,320,2013-01-24 06:02:00
1:10 AM,17.6,12.2,79,30.24,5.0,NW,16.1,23.0,N/A,Snow,Light Snow,310,2013-01-24 06:10:00
1:12 AM,17.6,12.2,79,30.24,4.0,NW,15.0,23.0,N/A,Snow,Light Snow,310,2013-01-24 06:12:00
1:15 AM,17.6,14.0,86,30.24,2.5,NW,16.1,-,N/A,Snow,Light Snow,310,2013-01-24 06:15:00
1:21 AM,17.6,14.0,86,30.24,3.0,NW,15.0,-,N/A,Snow,Light Snow,320,2013-01-24 06:21:00
1:25 AM,17.6,14.0,86,30.25,5.0,NW,17.3,-,N/A,Snow,Light Snow,320,2013-01-24 06:25:00
1:29 AM,17.6,14.0,86,30.25,4.0,NW,17.3,23.0,N/A,Snow,Light Snow,320,2013-01-24 06:29:00
1:34 AM,17.6,14.0,86,30.25,3.0,NW,15.0,23.0,N/A,Snow,Light Snow,320,2013-01-24 06:34:00
1:39 AM,17.6,14.0,86,30.26,3.0,NNW,13.8,-,N/A,Snow,Light Snow,330,2013-01-24 06:39:00
1:43 AM,17.6,14.0,86,30.26,2.5,NW,12.7,-,N/A,Snow,Light Snow,320,2013-01-24 06:43:00
1:44 AM,17.6,14.0,86,30.27,2.5,NW,11.5,-,N/A,Snow,Light Snow,320,2013-01-24 06:44:00
1:52 AM,17.6,14.0,86,30.27,2.5,NNW,15.0,21.9,N/A,Snow,Light Snow,330,2013-01-24 06:52:00
1:54 AM,17.6,14.0,86,30.28,3.0,NNW,12.7,21.9,N/A,Snow,Light Snow,330,2013-01-24 06:54:00
1:57 AM,17.6,14.0,86,30.28,5.0,NNW,12.7,21.9,N/A,Snow,Light Snow,330,2013-01-24 06:57:00
2:04 AM,17.6,14.0,86,30.28,4.0,NNW,12.7,-,N/A,Snow,Light Snow,340,2013-01-24 07:04:00
2:06 AM,17.6,14.0,86,30.29,4.0,NNW,13.8,-,N/A,Snow,Light Snow,340,2013-01-24 07:06:00
2:09 AM,17.6,14.0,86,30.29,5.0,NNW,13.8,-,N/A,Snow,Light Snow,340,2013-01-24 07:09:00
2:30 AM,17.6,14.0,86,30.30,5.0,North,10.4,-,N/A,Snow,Light Snow,10,2013-01-24 07:30:00
2:32 AM,17.6,14.0,86,30.31,4.0,NNE,10.4,-,N/A,Snow,Light Snow,20,2013-01-24 07:32:00
2:35 AM,17.6,14.0,86,30.31,2.0,North,11.5,-,N/A,Snow,Light Snow,10,2013-01-24 07:35:00
2:36 AM,17.6,14.0,86,30.32,1.5,NNE,10.4,-,N/A,Snow,Light Snow,20,2013-01-24 07:36:00
2:39 AM,17.6,14.0,86,30.32,1.0,NNE,13.8,-,N/A,Snow,Light Snow,20,2013-01-24 07:39:00
2:42 AM,17.6,14.0,86,30.32,1.0,NNE,12.7,-,N/A,Snow,Light Snow,20,2013-01-24 07:42:00
2:43 AM,17.6,14.0,86,30.32,1.0,North,10.4,-,N/A,Snow,Light Snow,10,2013-01-24 07:43:00
2:47 AM,15.8,14.0,93,30.32,1.0,North,11.5,-,N/A,Snow,Light Snow,10,2013-01-24 07:47:00
2:50 AM,15.8,14.0,93,30.32,1.2,North,11.5,-,N/A,Snow,Light Snow,360,2013-01-24 07:50:00
2:51 AM,15.8,14.0,93,30.33,1.2,North,11.5,-,N/A,Snow,Light Snow,350,2013-01-24 07:51:00
2:54 AM,15.8,14.0,93,30.33,1.8,North,12.7,-,N/A,Snow,Light Snow,360,2013-01-24 07:54:00
2:57 AM,15.8,12.2,86,30.33,3.0,North,12.7,20.7,N/A,Snow,Light Snow,360,2013-01-24 07:57:00
2:58 AM,15.8,12.2,86,30.34,4.0,North,10.4,20.7,N/A,Snow,Light Snow,360,2013-01-24 07:58:00
3:03 AM,15.8,12.2,86,30.34,10.0,North,9.2,20.7,N/A,Snow,Light Snow,350,2013-01-24 08:03:00
3:07 AM,15.8,12.2,86,30.35,10.0,North,10.4,-,N/A,,Scattered Clouds,350,2013-01-24 08:07:00
3:41 AM,14.0,8.6,79,30.38,10.0,North,8.1,-,N/A,,Mostly Cloudy,360,2013-01-24 08:41:00
3:49 AM,14.0,8.6,79,30.38,10.0,North,11.5,-,N/A,Snow,Light Snow,360,2013-01-24 08:49:00
3:52 AM,14.0,10.4,86,30.38,10.0,North,11.5,-,N/A,Snow,Light Snow,360,2013-01-24 08:52:00
3:55 AM,14.9,9.5,79,30.38,10.0,North,11.5,-,0.00,Snow,Light Snow,360,2013-01-24 08:55:00
4:04 AM,14.0,8.6,79,30.39,10.0,North,6.9,-,N/A,Snow,Light Snow,360,2013-01-24 09:04:00
4:07 AM,14.0,8.6,79,30.39,10.0,North,6.9,-,N/A,,Scattered Clouds,360,2013-01-24 09:07:00
4:55 AM,12.0,7.5,82,30.41,10.0,NNW,4.6,-,0.00,,Clear,330,2013-01-24 09:55:00
5:55 AM,4.6,2.1,89,30.45,10.0,WNW,5.8,-,N/A,,Clear,300,2013-01-24 10:55:00
6:55 AM,5.5,2.7,88,30.49,10.0,WNW,6.9,-,N/A,,Clear,300,2013-01-24 11:55:00
7:55 AM,9.0,6.6,90,30.52,10.0,WNW,5.8,-,N/A,,Scattered Clouds,300,2013-01-24 12:55:00
8:55 AM,8.8,6.4,90,30.55,10.0,NNW,5.8,-,N/A,,Mostly Cloudy,340,2013-01-24 13:55:00
9:55 AM,12.4,9.5,88,30.60,10.0,North,5.8,-,N/A,,Mostly Cloudy,350,2013-01-24 14:55:00
10:30 AM,14.0,10.4,86,30.56,10.0,North,6.9,-,N/A,,Clear,10,2013-01-24 15:30:00
10:55 AM,15.4,8.8,75,30.63,10.0,NE,6.9,-,N/A,,Clear,50,2013-01-24 15:55:00
11:55 AM,17.4,6.3,62,30.64,10.0,Variable,3.5,-,N/A,,Clear,0,2013-01-24 16:55:00
12:55 PM,19.0,5.4,55,30.61,10.0,East,6.9,-,N/A,,Clear,80,2013-01-24 17:55:00
1:55 PM,19.8,2.7,48,30.59,9.0,East,8.1,-,N/A,,Clear,90,2013-01-24 18:55:00
2:55 PM,21.2,5.5,51,30.57,10.0,ESE,6.9,-,N/A,,Clear,110,2013-01-24 19:55:00
3:55 PM,21.0,6.1,53,30.57,10.0,ESE,6.9,-,N/A,,Clear,110,2013-01-24 20:55:00
4:55 PM,19.9,4.3,51,30.56,10.0,East,4.6,-,N/A,,Clear,80,2013-01-24 21:55:00
5:55 PM,19.0,4.8,54,30.56,10.0,East,5.8,-,N/A,,Partly Cloudy,100,2013-01-24 22:55:00
6:55 PM,19.0,6.4,58,30.56,10.0,East,8.1,-,N/A,,Clear,90,2013-01-24 23:55:00
7:55 PM,18.7,7.0,60,30.53,10.0,East,8.1,-,N/A,,Clear,90,2013-01-25 00:55:00
8:55 PM,18.7,9.0,66,30.51,10.0,East,10.4,-,N/A,,Partly Cloudy,100,2013-01-25 01:55:00
9:55 PM,18.3,8.8,66,30.49,10.0,ESE,9.2,-,N/A,,Mostly Cloudy,110,2013-01-25 02:55:00
10:55 PM,18.7,9.7,68,30.46,10.0,East,12.7,-,N/A,,Mostly Cloudy,100,2013-01-25 03:55:00
11:55 PM,18.9,11.1,72,30.45,10.0,East,13.8,-,N/A,,Scattered Clouds,100,2013-01-25 04:55:00